Regional Weather Roundup
Issued by NWS Nashville, TN

Home | Current Version | Previous Version | Text Only | Print | Product List | Glossary On
Versions: 1 2 3 4 5 6 7 8 9 10 11 12 13 14 15 16 17 18 19 20 21 22 23 24 25 26 27 28 29 30 31 32 33 34 35 36 37 38 39 40 41 42 43 44 45 46 47 48 49 50
000
ASUS44 KOHX 270410
RWROHX
MIDDLE TENNESSEE HOURLY WEATHER ROUNDUP
NATIONAL WEATHER SERVICE NASHVILLE TN
1100 PM CDT MON JUN 26 2017

NOTE: "FAIR" INDICATES FEW OR NO CLOUDS BELOW 12,000 FEET WITH
NO SIGNIFICANT WEATHER AND/OR OBSTRUCTIONS TO VISIBILITY.

* THESE REPORTS ARE NOT UNDER NWS QUALITY CONTROL AND MAY NOT
  REPORT WEATHER SUCH AS PRECIPITATION AND FOG.


TNZ005>011-023>034-057-059-062>066-078-080-270500
...NORTHERN MIDDLE TENNESSEE...

CITY           SKY/WX    TMP DP  RH WIND       PRES   REMARKS
CLARKSVILLE    MOCLDY    67  55  65 W5        30.10R
CROSSVILLE     PTCLDY    57  54  89 CALM      30.15F
GALLATIN       MOCLDY    66  55  68 S5        30.11F
NASHVILLE      CLOUDY    68  56  65 S7        30.10F
PORTLAND       CLOUDY    64  59  82 CALM      30.08S
SMYRNA         CLOUDY    67  58  72 S5        30.12S
SPARTA         CLEAR     61  59  94 CALM      30.12R
SPRINGFIELD    MOCLDY    66  55  68 CALM      30.08S
WEST NASHVILLE CLEAR     66  59  77 CALM      30.08F
$$
TNZ056-058-060-061-075>077-079-093>097-270500
...SOUTHERN MIDDLE TENNESSEE...

CITY           SKY/WX    TMP DP  RH WIND       PRES   REMARKS
COLUMBIA       CLEAR     64  64 100 CALM      30.11R
FAYETTEVILLE   CLEAR     68  61  77 CALM      30.11F
MCMINNVILLE    CLEAR     61  61 100 CALM      30.13R
PULASKI        CLEAR     63  63 100 CALM      30.11S
SHELBYVILLE    CLEAR     63  61  94 CALM      30.12R
TULLAHOMA      MOCLDY    63  57  82 CALM      30.14R
WINCHESTER     CLEAR     63  61  94 CALM      30.13S
$$


...KEY TO REMARKS...
VSB - VISIBILITY IN MILES
WCI - WIND CHILL INDEX
HX  - HEAT INDEX




USA.gov is the U.S. government's official web portal to all federal, state and local government web resources and services.